Regional Weather Roundup
Issued by NWS Bismarck, ND

Home | Current Version | Previous Version | Text Only | Print | Product List | Glossary On
Versions: 1 2 3 4 5 6 7 8 9 10 11 12 13 14 15 16 17 18 19 20 21 22 23 24 25 26 27 28 29 30 31 32 33 34 35 36 37 38 39 40 41 42 43 44 45 46 47 48 49 50
000
ASUS43 KBIS 020801
RWRBIS

NWR BROADCAST TEXT
NATIONAL WEATHER SERVICE BISMARCK ND
200 AM CST MON MAR 02 2015

NOTE: "FAIR" INDICATES FEW OR NO CLOUDS BELOW 12,000 FEET WITH NO
SIGNIFICANT WEATHER AND/OR OBSTRUCTIONS TO VISIBILITY.


CITY           SKY/WX    TMP DP  RH WIND       PRES   REMARKS
WILLISTON      PTCLDY     9   3  77 S6        30.19F WCI  -1
MINOT          MOCLDY     8   1  73 SW8       30.25F WCI  -4
MINOT AFB      NOT AVBL
BISMARCK       CLEAR      3   0  87 E3        30.34F
DICKINSON      PTCLDY     4  -1  80 S7        30.18F WCI  -8
GARRISON         N/A      2  -1  88 S3        30.27F
HETTINGER ARPT CLEAR      9   3  77 SE9       30.23F WCI  -4
JAMESTOWN      PTCLDY     3  -2  79 W6        30.33F WCI  -8
CARRINGTON     FAIR       5   3  92 MISG      30.33R
CROSBY         FAIR       1   0  92 S9        30.18F WCI -14
HAZEN          FAIR       0  -4  85 CALM      30.29F
OAKES            N/A      0  -2  92 S7        30.40R WCI -13
WATFORD CITY   FAIR       1   0  92 CALM      30.18F
$$

CITY           SKY/WX    TMP DP  RH WIND       PRES   REMARKS
GRAND FORKS    PTCLDY     3  -2  79 CALM      30.36F
GRAND FORKS AF PTCLDY     6   1  78 W5        30.35F WCI  -3
DEVILS LAKE    MOCLDY     1  -8  66 CALM      30.30F
FARGO          PTCLDY     2  -3  80 SW7       30.39F WCI -11
GWINNER        SUNNY      7   1  78 W9        30.40S WCI  -7
$$

CITY           SKY/WX    TMP DP  RH WIND       PRES   REMARKS
ABERDEEN       PTCLDY     1  -3  83 CALM      30.42F
MOBRIDGE       PTCLDY     7   3  84 SE5       30.33F WCI  -2
BUFFALO          N/A     10   4  76 S12       30.11F WCI  -5
RAPID CITY     PTCLDY    13   7  77 S13       30.22F WCI  -2
GLASGOW        CLEAR     18   8  65 SE21      30.04F WCI   1
SIDNEY         CLEAR     10   3  72 S5        30.20F WCI   2
WOLF POINT     CLEAR     14   7  73 E6        30.12F WCI   5
GLENDIVE       CLEAR     10   5  79 S9        30.13F WCI  -2
MILES CITY     CLEAR     16   8  71 SE12      30.09F WCI   3
BAKER          CLEAR     11   5  77 S17       30.14F WCI  -6
$$

CITY           SKY/WX    TMP DP  RH WIND       PRES   REMARKS
BILLINGS       PTCLDY    19   5  54 CALM      29.97F
GREAT FALLS    CLOUDY    30  10  43 SW20G26   29.83F WCI  17
$$




USA.gov is the U.S. government's official web portal to all federal, state and local government web resources and services.